Total_Precipitation_Accumulation
1.76 1.82 1.90 2.00 2.03 2.07 2.10 2.08 2.07 2.08 2.10 2.09 2.18 2.24 2.26 2.27 2.48 2.69 2.58 2.83 2.98 3.02 2.81 2.79 2.76 2.82 2.86 2.71 2.82 2.90 3.00 3.38 3.38 2.67 2.50 2.56 2.68 2.70 2.76 2.61 2.48 2.49 2.28
1.82 1.95 1.98 2.09 2.12 2.05 2.09 2.28 2.29 2.25 2.23 2.23 2.31 2.40 2.33 2.33 2.51 2.52 2.36 2.47 2.69 2.92 3.14 3.28 3.04 3.08 3.11 2.98 2.99 2.96 3.03 3.32 3.36 3.10 2.84 2.79 2.86 2.81 2.82 2.64 2.23 2.11 2.21
1.63 1.81 2.06 2.07 2.11 2.29 2.48 2.63 2.65 2.54 2.48 2.49 2.57 2.51 2.52 2.57 2.56 2.45 2.46 2.51 2.58 2.65 2.92 3.21 3.24 3.46 3.18 3.19 3.13 3.01 3.03 3.06 3.27 3.08 2.84 2.99 2.98 2.93 2.87 2.49 2.30 2.38 2.17
1.74 1.96 2.14 2.35 2.50 2.65 2.67 2.76 2.76 2.72 2.71 2.70 2.71 2.64 2.59 2.64 2.67 2.65 2.64 2.59 2.62 2.57 2.65 2.80 2.95 3.25 3.23 3.34 3.17 3.16 3.28 3.36 3.48 3.32 3.10 3.17 3.28 3.28 3.17 2.79 2.64 2.54 2.38
2.05 2.19 2.23 2.33 2.51 2.77 3.00 3.00 2.93 2.85 2.75 2.93 2.92 2.83 2.83 2.81 2.59 2.75 2.98 2.93 2.97 2.72 2.62 2.60 2.60 2.87 2.97 3.06 2.78 2.97 3.32 3.39 3.45 3.37 3.23 3.24 3.23 3.39 3.12 2.95 2.82 2.81 2.70
2.50 2.62 2.75 2.84 2.96 3.10 3.20 3.26 3.32 3.27 3.20 3.15 3.04 3.08 3.03 2.74 2.87 2.96 2.89 2.93 3.12 3.07 2.90 2.84 2.70 2.63 2.65 2.70 2.72 2.82 2.99 3.00 3.07 3.21 3.13 3.10 3.12 3.27 3.46 3.34 3.17 3.03 2.77
2.64 2.74 2.85 2.97 3.15 3.31 3.39 3.45 3.32 3.29 3.27 3.17 3.14 3.18 3.07 3.08 3.04 2.81 2.69 2.70 2.80 2.89 2.93 2.89 2.55 2.38 2.64 2.54 2.69 2.72 2.53 2.48 2.51 2.68 2.69 2.69 3.16 3.49 3.85 3.50 3.33 3.15 2.86
2.80 2.89 2.95 3.00 3.10 3.30 3.52 3.46 3.32 3.31 3.27 3.23 3.17 3.06 2.98 2.87 2.93 2.68 2.68 2.56 2.51 2.48 2.62 2.73 2.66 2.52 2.55 2.70 2.60 2.32 2.09 2.08 2.15 2.07 2.06 2.32 2.80 3.43 3.79 3.76 3.78 3.53 3.16
2.53 2.71 2.73 2.89 3.08 3.18 3.21 3.25 3.36 3.36 3.17 3.02 2.91 2.90 2.87 2.92 3.16 2.85 2.72 2.49 2.47 2.33 2.37 2.39 2.40 2.25 2.42 2.58 2.44 2.18 1.98 1.87 1.93 1.96 1.92 2.14 2.43 2.81 3.26 3.51 3.44 3.31 2.88
2.46 2.67 2.85 3.01 3.18 3.23 3.26 3.41 3.48 3.47 3.43 3.40 3.26 3.20 3.12 3.07 3.30 3.01 2.81 2.52 2.48 2.42 2.47 2.45 2.51 2.25 2.20 2.16 2.03 2.03 1.84 1.73 1.89 1.87 1.81 1.84 1.96 2.28 2.78 2.87 2.96 3.10 2.82
2.53 2.62 2.77 2.97 3.20 3.48 3.66 3.59 3.61 3.59 3.52 3.36 3.23 3.10 3.08 3.08 3.08 2.88 2.73 2.36 2.27 2.36 2.24 2.14 2.16 2.16 1.94 1.78 1.74 1.70 1.65 1.78 1.88 1.83 1.72 1.70 1.83 2.01 2.19 2.47 2.74 2.82 2.68
2.68 2.78 2.86 3.07 3.15 3.32 3.59 3.60 3.53 3.52 3.44 3.36 3.36 3.35 3.28 3.11 2.82 2.58 2.50 2.35 2.34 2.30 2.29 2.25 2.24 2.24 1.96 1.80 1.62 1.48 1.58 1.63 1.66 1.76 1.65 1.53 1.56 1.69 1.96 2.28 2.61 2.74 2.67
2.65 2.83 3.04 3.16 3.24 3.37 3.54 3.61 3.59 3.52 3.36 3.24 3.15 2.98 2.96 2.98 2.88 2.65 2.37 2.19 2.15 1.99 2.14 2.48 2.50 2.42 2.17 1.86 1.75 1.78 1.73 1.60 1.61 1.62 1.52 1.44 1.50 1.68 1.97 2.33 2.62 2.83 2.79
2.61 2.69 2.87 3.03 3.18 3.35 3.38 3.25 3.12 2.97 2.90 2.88 2.73 2.62 2.64 2.71 2.59 2.49 2.32 2.21 2.22 2.08 2.10 2.41 2.56 2.53 2.37 2.11 1.99 1.93 1.72 1.65 1.73 1.70 1.71 1.75 1.88 2.01 2.16 2.30 2.55 2.73 2.80
2.64 2.72 2.74 2.76 2.86 3.03 3.10 3.06 2.93 2.75 2.60 2.55 2.44 2.46 2.46 2.39 2.42 2.47 2.30 2.14 2.13 2.19 2.28 2.46 2.59 2.68 2.69 2.60 2.48 2.41 2.29 2.13 1.96 1.91 1.99 2.00 2.05 2.13 2.18 2.35 2.62 2.72 2.65
2.74 2.61 2.54 2.48 2.49 2.57 2.59 2.62 2.73 2.60 2.59 2.45 2.32 2.25 2.16 2.20 2.25 2.21 2.10 2.01 2.02 2.18 2.22 2.30 2.54 2.74 2.81 2.89 2.92 2.81 2.58 2.39 2.21 2.20 2.18 2.20 2.23 2.22 2.26 2.42 2.64 2.73 2.59
2.71 2.54 2.45 2.40 2.39 2.35 2.32 2.36 2.49 2.55 2.50 2.38 2.33 2.17 2.01 2.05 2.02 1.99 1.96 1.90 1.95 2.04 2.00 2.11 2.25 2.38 2.58 2.80 2.86 2.83 2.61 2.49 2.52 2.51 2.44 2.45 2.50 2.47 2.43 2.51 2.70 2.82 2.76
2.58 2.66 2.56 2.43 2.42 2.44 2.44 2.41 2.40 2.46 2.44 2.32 2.29 2.23 1.96 1.85 1.83 1.79 1.78 1.70 1.59 1.64 1.69 1.87 2.08 2.24 2.43 2.69 2.85 2.88 2.80 2.73 2.73 2.79 2.79 2.75 2.76 2.65 2.50 2.41 2.56 2.69 2.74
2.48 2.53 2.58 2.55 2.50 2.55 2.55 2.44 2.35 2.29 2.26 2.15 2.06 2.09 2.05 1.88 1.77 1.75 1.72 1.52 1.45 1.47 1.57 1.61 1.72 1.94 2.19 2.46 2.73 2.89 2.87 2.77 2.71 2.77 2.78 2.76 2.80 2.78 2.60 2.43 2.47 2.69 2.74
2.45 2.60 2.52 2.51 2.48 2.44 2.46 2.44 2.40 2.40 2.32 2.20 2.09 2.04 1.99 1.84 1.69 1.79 1.85 1.78 1.68 1.63 1.63 1.64 1.74 1.92 2.14 2.40 2.60 2.71 2.76 2.76 2.71 2.68 2.62 2.57 2.60 2.61 2.47 2.39 2.38 2.46 2.50
2.25 2.37 2.43 2.22 2.22 2.33 2.32 2.33 2.36 2.40 2.36 2.26 2.13 2.10 1.98 1.71 1.75 1.86 1.97 2.01 1.92 1.81 1.75 1.75 1.78 1.88 2.05 2.27 2.45 2.61 2.67 2.71 2.72 2.72 2.67 2.58 2.56 2.57 2.50 2.46 2.44 2.45 2.47
2.25 2.12 2.09 2.12 2.25 2.32 2.38 2.40 2.38 2.31 2.27 2.25 2.20 2.17 2.11 1.79 1.82 1.90 1.95 2.04 2.06 2.03 1.97 1.98 1.98 1.98 2.06 2.22 2.39 2.53 2.57 2.58 2.62 2.68 2.71 2.70 2.70 2.68 2.72 2.73 2.68 2.63 2.61
2.10 2.07 2.01 2.05 2.21 2.37 2.42 2.40 2.41 2.35 2.30 2.31 2.27 2.18 2.11 1.98 1.98 2.08 2.14 2.16 2.15 2.12 2.07 2.05 2.01 2.00 2.02 2.06 2.15 2.31 2.41 2.41 2.41 2.51 2.62 2.59 2.53 2.53 2.59 2.62 2.63 2.66 2.63
1.86 1.98 2.01 1.98 2.05 2.11 2.13 2.14 2.13 2.09 2.10 2.12 2.15 2.19 2.18 2.15 2.18 2.24 2.20 2.16 2.06 1.99 1.99 1.95 1.91 1.88 1.91 1.97 1.99 1.98 2.06 2.17 2.17 2.22 2.33 2.40 2.37 2.34 2.40 2.43 2.52 2.62 2.73
1.71 1.87 1.97 1.93 1.89 1.92 1.91 1.84 1.82 1.88 2.00 2.11 2.14 2.15 2.15 2.14 2.12 2.08 1.98 1.88 1.81 1.85 1.87 1.84 1.80 1.71 1.67 1.70 1.74 1.78 1.95 2.02 2.03 2.02 2.01 2.11 2.16 2.18 2.22 2.28 2.39 2.55 2.73
1.70 1.79 1.83 1.82 1.80 1.84 1.89 1.87 1.82 1.85 1.96 2.00 2.01 1.99 2.00 1.97 1.95 1.89 1.81 1.76 1.73 1.73 1.78 1.81 1.75 1.62 1.57 1.56 1.57 1.63 1.66 1.61 1.70 1.84 1.83 1.87 2.03 2.14 2.16 2.18 2.22 2.36 2.48